When you browse on this site, cookies collect data to enhance your experience and personalize the content and advertising you see.
Visit our Privacy Policy to learn more. By continuing to use the site, you agree to this use of cookies and data.
  • en Suisse
  • Liste des pays
  • À 7 jours
  • Température de l'eau
  • Carte satellitaire
  • Carte météo
  • Widgets météo
  • user-avatar
    Se connecter

    Météo par heure à Saurimo

    Ce jour, 21 Mars, Jeudi

    Heure Température Précipitation Vent Pression Humidité
    00:00 +21°C° 0.7 mm 1 m/s 669 mmHg 95%
    01:00 +20°C° 0 mm 2 m/s 670 mmHg 94%
    02:00 +21°C° 0.1 mm 1 m/s 670 mmHg 94%
    03:00 +21°C° 0.1 mm 1 m/s 669 mmHg 94%
    04:00 +21°C° 0.1 mm 1 m/s 669 mmHg 93%
    05:00 +21°C° 0 mm 1 m/s 670 mmHg 92%
    06:00 +22°C° 0 mm 1 m/s 670 mmHg 91%
    07:00 +23°C° 0 mm 1 m/s 671 mmHg 88%
    08:00 +25°C° 0 mm 1 m/s 671 mmHg 77%
    09:00 +28°C° 0 mm 1 m/s 672 mmHg 66%
    10:00 +30°C° 0 mm 1 m/s 672 mmHg 55%
    11:00 +32°C° 0 mm 1 m/s 672 mmHg 51%
    12:00 +32°C° 0 mm 0 m/s 672 mmHg 46%
    13:00 +34°C° 0 mm 0 m/s 672 mmHg 42%
    14:00 +32°C° 0 mm 0 m/s 671 mmHg 46%
    15:00 +31°C° 0 mm 0 m/s 670 mmHg 51%
    16:00 +29°C° 0 mm 0 m/s 669 mmHg 55%
    17:00 +27°C° 0 mm 0 m/s 669 mmHg 58%
    18:00 +25°C° 0 mm 0 m/s 669 mmHg 61%
    19:00 +24°C° 0 mm 0 m/s 669 mmHg 65%
    20:00 +25°C° 0 mm 1 m/s 669 mmHg 67%
    21:00 +24°C° 0 mm 1 m/s 669 mmHg 69%
    22:00 +24°C° 0 mm 1 m/s 670 mmHg 71%
    23:00 +23°C° 0.4 mm 1 m/s 669 mmHg 76%

    Demain, 22 Mars, Vendredi

    Heure Température Précipitation Vent Pression Humidité
    00:00 +22°C° 0.4 mm 1 m/s 669 mmHg 82%
    01:00 +22°C° 0.4 mm 1 m/s 669 mmHg 87%
    02:00 +21°C° 1.4 mm 1 m/s 669 mmHg 89%
    03:00 +19°C° 1.4 mm 0 m/s 668 mmHg 92%
    04:00 +19°C° 1.4 mm 0 m/s 668 mmHg 94%
    05:00 +19°C° 0.1 mm 0 m/s 669 mmHg 93%
    06:00 +20°C° 0.1 mm 0 m/s 669 mmHg 92%
    07:00 +21°C° 0.1 mm 0 m/s 670 mmHg 91%
    08:00 +24°C° 0 mm 0 m/s 671 mmHg 79%
    09:00 +29°C° 0 mm 1 m/s 671 mmHg 66%
    10:00 +32°C° 0 mm 1 m/s 672 mmHg 54%
    11:00 +32°C° 0 mm 1 m/s 671 mmHg 50%
    12:00 +34°C° 0 mm 2 m/s 671 mmHg 45%
    13:00 +34°C° 0 mm 2 m/s 670 mmHg 40%
    14:00 +34°C° 0 mm 2 m/s 670 mmHg 43%
    15:00 +34°C° 0 mm 2 m/s 669 mmHg 46%
    16:00 +32°C° 0 mm 1 m/s 669 mmHg 49%
    17:00 +30°C° 0 mm 1 m/s 669 mmHg 54%
    18:00 +26°C° 0 mm 0 m/s 669 mmHg 58%
    19:00 +24°C° 0 mm 0 m/s 669 mmHg 63%
    20:00 +23°C° 0 mm 0 m/s 669 mmHg 65%
    21:00 +25°C° 0 mm 1 m/s 669 mmHg 67%
    22:00 +24°C° 0 mm 1 m/s 669 mmHg 68%
    23:00 +24°C° 0 mm 1 m/s 669 mmHg 71%

    Après-demain, 23 Mars, Samedi

    Heure Température Précipitation Vent Pression Humidité
    00:00 +23°C° 0 mm 1 m/s 669 mmHg 73%
    01:00 +22°C° 0 mm 1 m/s 668 mmHg 76%
    02:00 +22°C° 0 mm 1 m/s 668 mmHg 78%
    03:00 +22°C° 0 mm 1 m/s 668 mmHg 79%
    04:00 +21°C° 0 mm 1 m/s 668 mmHg 81%
    05:00 +20°C° 0.2 mm 0 m/s 668 mmHg 81%
    06:00 +20°C° 0.2 mm 0 m/s 669 mmHg 82%
    07:00 +21°C° 0.2 mm 0 m/s 670 mmHg 82%
    08:00 +26°C° 0 mm 1 m/s 670 mmHg 73%
    09:00 +29°C° 0 mm 1 m/s 671 mmHg 63%
    10:00 +31°C° 0 mm 1 m/s 672 mmHg 54%
    11:00 +32°C° 0 mm 2 m/s 671 mmHg 50%
    12:00 +34°C° 0 mm 2 m/s 670 mmHg 46%
    13:00 +34°C° 0 mm 3 m/s 670 mmHg 42%
    14:00 +34°C° 0 mm 2 m/s 669 mmHg 45%
    15:00 +32°C° 0 mm 2 m/s 669 mmHg 47%
    16:00 +32°C° 0 mm 2 m/s 668 mmHg 50%
    17:00 +30°C° 0 mm 1 m/s 668 mmHg 54%
    18:00 +28°C° 0 mm 1 m/s 668 mmHg 59%
    19:00 +26°C° 0 mm 1 m/s 668 mmHg 63%
    20:00 +25°C° 0 mm 1 m/s 668 mmHg 66%
    21:00 +24°C° 0 mm 1 m/s 668 mmHg 68%
    22:00 +24°C° 0 mm 1 m/s 668 mmHg 70%
    23:00 +23°C° 0 mm 1 m/s 668 mmHg 72%

    24 Mars, Dimanche

    Heure Température Précipitation Vent Pression Humidité
    00:00 +23°C° 0 mm 1 m/s 668 mmHg 74%
    01:00 +22°C° 0 mm 1 m/s 668 mmHg 76%
    02:00 +22°C° 0 mm 1 m/s 668 mmHg 77%
    03:00 +21°C° 0 mm 1 m/s 668 mmHg 79%
    04:00 +21°C° 0 mm 1 m/s 668 mmHg 80%
    05:00 +21°C° 0 mm 1 m/s 668 mmHg 79%
    06:00 +20°C° 0 mm 0 m/s 669 mmHg 79%
    07:00 +21°C° 0 mm 0 m/s 670 mmHg 78%
    08:00 +23°C° 0 mm 0 m/s 670 mmHg 72%
    09:00 +27°C° 0 mm 1 m/s 671 mmHg 66%
    10:00 +29°C° 0 mm 1 m/s 671 mmHg 60%
    11:00 +29°C° 0.6 mm 1 m/s 671 mmHg 61%
    12:00 +28°C° 0.6 mm 0 m/s 670 mmHg 62%
    13:00 +28°C° 0.6 mm 0 m/s 669 mmHg 63%
    14:00 +28°C° 0.3 mm 0 m/s 669 mmHg 61%
    15:00 +30°C° 0.3 mm 1 m/s 669 mmHg 60%
    16:00 +29°C° 0.3 mm 1 m/s 668 mmHg 58%
    17:00 +28°C° 0 mm 1 m/s 669 mmHg 63%
    18:00 +26°C° 0 mm 1 m/s 669 mmHg 68%
    19:00 +25°C° 0 mm 1 m/s 669 mmHg 73%
    20:00 +24°C° 0.1 mm 1 m/s 669 mmHg 76%
    21:00 +23°C° 0.1 mm 1 m/s 669 mmHg 79%
    22:00 +23°C° 0.1 mm 1 m/s 669 mmHg 82%
    23:00 +22°C° 0.1 mm 1 m/s 669 mmHg 86%

    25 Mars, Lundi

    Heure Température Précipitation Vent Pression Humidité
    00:00 +22°C° 0.1 mm 1 m/s 669 mmHg 90%
    01:00 +22°C° 0.1 mm 1 m/s 668 mmHg 94%
    02:00 +21°C° 0.5 mm 1 m/s 668 mmHg 95%
    03:00 +21°C° 0.5 mm 1 m/s 668 mmHg 95%
    04:00 +21°C° 0.5 mm 1 m/s 668 mmHg 96%
    05:00 +21°C° 0.1 mm 1 m/s 669 mmHg 95%
    06:00 +22°C° 0.1 mm 1 m/s 670 mmHg 93%
    07:00 +22°C° 0.1 mm 1 m/s 670 mmHg 92%
    08:00 +23°C° 0 mm 1 m/s 670 mmHg 88%
    09:00 +24°C° 0 mm 1 m/s 671 mmHg 85%
    10:00 +25°C° 0 mm 1 m/s 671 mmHg 82%
    11:00 +26°C° 1.1 mm 1 m/s 670 mmHg 77%
    12:00 +27°C° 1.1 mm 1 m/s 670 mmHg 73%
    13:00 +29°C° 1.1 mm 1 m/s 670 mmHg 68%
    14:00 +27°C° 1.4 mm 1 m/s 669 mmHg 75%
    15:00 +26°C° 1.4 mm 1 m/s 669 mmHg 81%
    16:00 +25°C° 1.4 mm 2 m/s 669 mmHg 88%
    17:00 +24°C° 0.1 mm 1 m/s 669 mmHg 90%
    18:00 +23°C° 0.1 mm 1 m/s 669 mmHg 92%
    19:00 +22°C° 0.1 mm 1 m/s 670 mmHg 94%
    20:00 +21°C° 0 mm 1 m/s 670 mmHg 94%
    21:00 +21°C° 0 mm 1 m/s 670 mmHg 94%
    22:00 +21°C° 0 mm 1 m/s 670 mmHg 94%
    23:00 +21°C° 0.1 mm 1 m/s 670 mmHg 95%

    26 Mars, Mardi

    Heure Température Précipitation Vent Pression Humidité
    00:00 +21°C° 0.1 mm 1 m/s 670 mmHg 96%
    01:00 +20°C° 0.1 mm 1 m/s 669 mmHg 96%
    02:00 +20°C° 0.1 mm 1 m/s 669 mmHg 96%
    03:00 +20°C° 0.1 mm 1 m/s 669 mmHg 96%
    04:00 +20°C° 0.1 mm 1 m/s 669 mmHg 96%
    05:00 +20°C° 0 mm 1 m/s 669 mmHg 95%
    06:00 +21°C° 0 mm 1 m/s 670 mmHg 94%
    07:00 +21°C° 0 mm 1 m/s 670 mmHg 93%
    08:00 +23°C° 0 mm 1 m/s 671 mmHg 82%
    09:00 +26°C° 0 mm 2 m/s 671 mmHg 71%
    10:00 +28°C° 0 mm 2 m/s 672 mmHg 60%
    11:00 +29°C° 0 mm 2 m/s 672 mmHg 56%
    12:00 +31°C° 0 mm 2 m/s 671 mmHg 51%
    13:00 +32°C° 0 mm 1 m/s 671 mmHg 47%
    14:00 +31°C° 0.1 mm 1 m/s 670 mmHg 53%
    15:00 +30°C° 0.1 mm 1 m/s 670 mmHg 58%
    16:00 +26°C° 0.1 mm 0 m/s 669 mmHg 64%
    17:00 +27°C° 0.5 mm 1 m/s 669 mmHg 70%
    18:00 +25°C° 0.5 mm 1 m/s 670 mmHg 77%
    19:00 +23°C° 0.5 mm 1 m/s 670 mmHg 83%
    20:00 +22°C° 0.4 mm 1 m/s 670 mmHg 85%
    21:00 +22°C° 0.4 mm 1 m/s 670 mmHg 87%
    22:00 +21°C° 0.4 mm 1 m/s 670 mmHg 90%
    23:00 +21°C° 0 mm 1 m/s 670 mmHg 90%
    Voir plus